User: anonymous
Location: Wilsall
(45.9940°N, 110.6590°W)
Time: 01:23:59
(UTC-06:00)
Language:

GP-B - Orbit

View from above orbital plane
View from above orbital plane
View from above satellite
View from above satellite

Ground track
Ground track

The orbit data is extracted from the following two-line orbital elements,

1 28230U 04014A   14211.79875244  .00000444  00000-0  60034-4 0  1147
2 28230 089.8910 139.4074 0002097 095.0740 265.0722 14.77573030553636
Epoch (UTC): 30 July 2014 19:10:12
Eccentricity: 0.0002097
inclination: 89.8910°
perigee height: 635 km
apogee height: 638 km
right ascension of ascending node: 139.4074°
argument of perigee: 95.0740°
revolutions per day: 14.77573030
mean anomaly at epoch: 265.0722°
orbit number at epoch: 55363

The dashed part of the orbit path shows where the satellite is in the earth's shadow,  

DLR